• Processing (Info)

  • MPEC 2006-M44 : S/2004 S 19

    The following Minor Planet Electronic Circular may be linked-to from your own Web pages, but must not otherwise be redistributed electronically.

    A form allowing access to any MPEC is at the bottom of this page.


    Read MPEC 2006-M43 Read MPEC 2006-M45


    M.P.E.C. 2006-M44                                Issued 2006 June 26, 22:23 UT
    
         The Minor Planet Electronic Circulars contain information on unusual
             minor planets and routine data on comets.  They are published
       on behalf of Commission 20 of the International Astronomical Union by the
              Minor Planet Center, Smithsonian Astrophysical Observatory,
                              Cambridge, MA 02138, U.S.A.
    
                      Supported in part by the Brinson Foundation
                      Supported in part by the TABASGO Foundation
                 Prepared using the Tamkin Foundation Computer Network
    
                                  MPC@CFA.HARVARD.EDU
              URL http://cfa-www.harvard.edu/iau/mpc.html  ISSN 1523-6714
    
                                      S/2004 S 19
    
    Observations:
        SK04S190  C2004 12 12.44635 07 55 16.34 +21 00 58.0                 EM044568
        SK04S190  C2004 12 12.46294 07 55 16.02 +21 00 59.0                 EM044568
        SK04S190  C2004 12 12.50214 07 55 15.55 +21 00 59.6                 EM044568
        SK04S190  C2004 12 12.50818 07 55 15.41 +21 00 59.8                 EM044568
        SK04S190  C2004 12 14.60215 07 54 45.12 +21 02 21.9          23.8 R EM044568
        SK04S190  C2004 12 14.60516 07 54 44.86 +21 02 22.3          23.5 R EM044568
        SK04S190  C2004 12 14.62638 07 54 44.65 +21 02 22.3          23.5 R EM044568
        SK04S190  C2004 12 14.62939 07 54 44.58 +21 02 22.6                 EM044568
        SK04S190  C2005 01 05.59417 07 48 12.58 +21 19 05.2          22.9 R EM044568
        SK04S190  C2005 01 05.61650 07 48 12.17 +21 19 06.2                 EM044568
        SK04S190  C2005 02 07.40892 07 37 24.82 +21 43 43.8                 EM044568
        SK04S190  C2005 02 07.42444 07 37 24.57 +21 43 44.4                 EM044568
        SK04S190  C2005 02 08.34470 07 37 08.72 +21 44 17.5                 EM044568
        SK04S190  C2005 02 08.38095 07 37 08.09 +21 44 18.6                 EM044568
        SK04S190  C2005 03 09.27204 07 31 20.38 +21 55 12.6                 EM044568
        SK04S190  C2005 03 09.30494 07 31 20.16 +21 55 12.9                 EM044568
        SK04S190  C2006 01 05.59392 08 45 20.63 +18 48 14.0                 EM044568
        SK04S190  C2006 01 05.65046 08 45 19.62 +18 48 19.0                 EM044568
        SK04S190  C2006 01 06.62163 08 45 02.58 +18 49 42.6          23.5 R EM044568
        SK04S190  C2006 01 06.64310 08 45 02.17 +18 49 44.9          23.5 R EM044568
        SK04S190  C2006 02 01.32633 08 36 43.10 +19 28 31.0          23.5 R EM044568
        SK04S190  C2006 02 01.35072 08 36 42.54 +19 28 33.6          23.5 R EM044568
        SK04S190  C2006 03 06.27120 08 27 20.39 +20 08 56.9                 EM044568
        SK04S190  C2006 03 06.29603 08 27 20.07 +20 08 58.2                 EM044568
        SK04S190  C2006 04 30.24076 08 26 53.07 +20 16 35.3                 EM044568
        SK04S190  C2006 04 30.26424 08 26 53.30 +20 16 34.4                 EM044568
    
    Observer details:
    568 Mauna Kea.  Observers D. C. Jewitt, S. S. Sheppard, J. Kleyna.  Measurer
        S. S. Sheppard.  Subaru 8.2-m reflector + CCD.
    
    Orbital elements:
    S/2004 S 19
    Epoch 2006 Mar. 6.0 TT = JDT 2453800.5                  MPC
    M  89.58888              (2000.0)            P               Q
    n   0.39374725     Peri.  268.52521     -0.67401577     +0.66054458
    a   0.1214475      Node    47.33793     +0.71661425     +0.69335597
    e   0.3604062      Incl.  153.27216     -0.17935092     +0.28799020
    P   2.50           H   14.3           P/d   914.29
    Residuals in seconds of arc
    041212 568  0.4+  0.2-    050105 568  0.4+  0.1+    060106 568  0.2-  0.5-
    041212 568  0.7-  0.2+    050207 568  0.2-  0.2+    060106 568  0.5-  0.0
    041212 568  0.7+  0.7-    050207 568  0.2+  0.2+    060201 568  1.0+  0.1-
    041212 568  0.1-  0.8-    050208 568  0.1-  0.2+    060201 568  0.1+  0.3+
    041214 568  1.4+  0.3+    050208 568  0.0   0.1+    060306 568  0.0   0.1-
    041214 568  1.6-  0.6+    050309 568  0.3+  0.1-    060306 568  0.0   0.1-
    041214 568  0.0   0.2-    050309 568  0.2+  0.1-    060430 568  0.2+  0.2+
    041214 568  0.4-  0.0     060105 568  0.2-  0.0     060430 568  0.3-  0.2+
    050105 568  0.2-  0.1+    060105 568  0.2-  0.2+
    
    Brian G. Marsden             (C) Copyright 2006 MPC           M.P.E.C. 2006-M44
    

    Read MPEC 2006-M43 Read MPEC 2006-M45


    MPEC number:

    Enter an MPEC number in one of the following forms:

    • 1997-B01 (the full form)
    • J97B01 (the packed version of the full form)
    • B01 (the abbreviated form)